Theta_e
314 314 314 316 316 316 315 315 317 316 315 315 315 317 314 311 314 314 314 315 311 312 316 314 313 314 315 320 323 324 328 331 332 340 344 342 343 342 342 342 340 340 337 333 333 334 335 336 335 334 333 334 335 335 336 336 337 337 336 337 337 336 336 336 337 337 335 334 334 334 335 335 335 335 335 335 335 335 335 335 335 336 335 335 335 335
315 315 316 318 318 318 317 317 317 314 314 314 314 314 312 312 316 314 314 314 311 314 317 313 315 317 318 323 326 327 331 330 329 334 338 340 343 341 339 338 337 337 335 332 333 333 334 336 335 334 334 335 336 335 336 336 336 336 336 337 336 335 335 335 336 336 334 334 334 334 334 334 334 334 334 334 334 335 335 335 335 336 336 335 335 335
315 317 319 317 315 316 317 318 318 319 320 319 315 314 314 314 314 315 317 316 313 314 315 315 322 324 321 323 326 328 331 331 329 330 330 334 339 340 340 338 337 338 337 333 333 334 334 334 335 335 335 335 335 335 335 335 335 335 335 336 335 335 335 335 336 335 333 333 333 334 333 334 334 334 334 334 335 335 335 335 335 335 336 335 335 335
317 318 319 314 311 315 318 318 319 321 321 321 319 315 315 315 313 316 320 319 315 314 314 318 326 328 327 330 331 329 330 330 330 330 330 330 332 335 338 339 340 343 340 333 333 335 333 334 334 335 335 335 335 334 334 334 334 334 334 334 334 335 335 334 335 333 332 332 332 333 333 334 334 334 335 335 335 335 334 334 335 334 334 335 335 335
318 316 314 312 311 315 317 316 318 317 315 318 321 319 317 316 313 314 318 321 322 317 314 318 323 327 330 334 335 331 329 330 331 331 331 330 329 332 334 334 336 339 336 332 333 335 334 334 334 334 334 334 334 334 334 333 333 333 333 334 334 334 334 334 334 333 333 332 332 333 333 334 334 335 335 336 336 335 334 334 334 334 334 334 335 334
317 313 311 312 312 313 315 316 316 318 315 314 319 320 318 317 315 316 318 322 326 319 312 315 320 323 327 335 337 333 331 330 331 331 331 331 330 331 333 333 333 333 332 331 332 334 334 334 334 334 334 334 334 334 334 333 333 333 333 333 334 333 333 334 333 333 333 332 333 333 333 334 335 336 336 336 336 335 335 335 334 334 334 334 334 334
316 312 312 314 313 312 313 314 312 316 317 314 316 317 316 315 316 319 319 319 322 318 312 316 321 319 322 333 337 334 332 331 331 332 331 332 332 332 333 333 332 332 333 333 331 333 334 334 334 334 334 334 334 333 333 333 332 332 332 332 333 333 333 333 333 333 333 333 333 333 333 334 335 336 336 336 336 336 335 335 334 334 334 334 333 334
314 313 313 314 313 312 313 313 311 313 315 316 318 316 314 317 319 323 322 318 320 318 316 322 327 325 326 333 335 333 334 332 331 332 332 333 333 332 332 332 332 332 333 334 332 333 333 333 332 333 333 333 332 332 332 331 331 331 331 331 332 332 332 333 333 333 333 333 333 333 333 333 334 335 335 336 336 335 335 335 334 334 334 333 333 333
315 315 315 313 313 312 313 316 313 310 313 318 318 314 314 318 321 322 322 325 325 317 316 323 325 323 326 332 334 334 334 334 332 331 332 334 333 332 332 332 332 331 331 332 331 331 330 329 328 329 330 330 330 331 331 330 330 330 330 330 331 331 332 333 333 333 333 333 333 332 332 333 334 335 335 336 335 335 335 334 333 333 333 333 333 333
314 315 315 313 313 314 315 315 312 310 312 315 315 313 315 318 321 323 321 325 327 320 316 321 322 323 328 332 335 334 335 334 332 331 332 333 333 333 332 331 331 330 330 330 330 329 328 327 328 329 329 329 329 330 330 330 330 330 330 330 331 331 332 333 333 333 333 332 332 332 332 333 334 335 335 335 335 335 334 334 333 332 332 333 333 334
314 314 314 314 315 315 314 312 309 310 311 311 314 315 316 320 325 331 331 325 321 322 321 319 322 329 332 334 336 335 334 332 331 332 332 332 332 331 331 331 330 330 330 330 330 329 328 327 327 328 328 328 328 328 329 330 330 330 331 331 332 331 332 333 332 333 333 332 333 333 333 334 335 336 335 335 335 334 333 332 332 331 332 333 333 333
313 312 313 315 317 313 312 311 307 309 311 314 320 318 315 321 326 330 332 325 320 322 322 319 322 330 332 332 333 333 331 330 330 332 332 332 331 330 330 329 328 329 328 328 329 328 328 327 326 326 326 326 326 326 327 329 329 330 331 331 332 332 332 333 332 333 333 333 333 333 332 333 334 335 335 335 334 333 332 331 330 330 333 334 333 333
314 315 314 314 315 313 313 313 309 309 311 315 320 317 315 319 320 320 323 323 323 322 318 317 325 335 335 333 331 331 330 329 330 331 331 331 329 328 327 326 325 325 325 325 326 326 326 326 326 325 325 325 326 326 326 327 327 328 329 330 331 332 333 333 333 333 333 333 333 331 331 331 332 333 334 335 334 333 331 331 330 330 332 333 333 333
314 316 314 311 313 313 314 314 313 312 312 314 316 317 318 320 317 316 318 319 320 319 315 318 330 339 336 333 331 330 330 329 329 330 329 328 326 325 324 323 323 322 322 322 322 322 323 324 324 324 324 325 325 326 326 326 326 327 328 328 329 330 331 332 333 333 333 333 332 331 330 330 331 332 333 334 334 333 332 331 331 331 332 333 333 333
318 318 316 313 312 314 313 314 317 315 312 313 315 315 319 323 324 321 321 321 318 318 321 324 332 338 335 333 331 330 329 329 329 327 326 325 324 323 322 321 321 320 320 319 318 319 319 320 321 321 322 323 324 324 325 325 326 326 327 327 328 329 330 331 332 332 332 332 331 331 331 332 332 332 332 333 334 333 332 331 331 331 332 333 333 333
316 319 322 316 311 312 313 313 314 313 312 311 312 314 315 320 327 324 321 324 323 326 331 330 330 332 332 332 329 328 330 328 327 325 324 324 322 321 321 320 319 319 318 318 317 317 317 317 318 319 319 320 320 321 321 322 324 324 325 326 327 327 328 329 330 330 330 330 330 330 331 333 333 332 332 332 333 333 332 332 331 331 333 333 333 332
314 319 321 315 312 313 314 313 312 312 316 314 312 316 315 314 323 321 316 319 324 329 328 325 331 333 331 332 330 329 331 328 327 326 324 323 321 320 320 319 318 318 317 316 315 315 315 315 315 316 317 317 318 318 318 319 321 323 323 324 324 326 326 327 328 327 327 328 329 329 330 332 333 333 332 332 332 332 332 331 331 332 333 333 332 332
319 322 321 315 312 312 312 314 313 312 316 317 314 316 313 311 317 321 320 322 326 330 325 324 333 335 331 332 331 330 332 330 328 326 323 321 320 319 318 317 316 315 315 314 313 313 314 314 314 314 315 315 315 316 316 317 319 321 321 321 321 323 324 326 326 326 327 328 329 330 330 331 332 333 332 332 331 331 331 332 332 332 332 333 332 331
317 321 320 316 312 312 313 314 313 311 311 314 315 314 313 315 317 316 318 319 320 326 328 329 332 331 331 333 332 332 333 331 328 325 322 320 318 317 316 315 314 313 313 313 312 312 312 313 313 313 313 313 314 314 314 316 318 318 318 319 320 321 322 324 325 326 326 327 328 328 329 330 331 331 331 330 328 328 331 332 333 333 332 332 331 331
319 320 319 316 312 312 316 317 317 315 311 311 314 311 314 323 323 316 317 319 321 325 327 330 331 331 333 333 332 334 331 329 328 325 321 318 316 315 314 313 312 312 311 311 310 310 311 312 312 312 312 312 312 312 313 314 315 315 315 316 318 319 320 322 323 324 325 326 327 327 327 328 329 330 330 329 329 330 332 332 333 332 332 331 331 331
317 315 318 321 317 315 317 317 318 316 313 312 315 313 313 318 317 315 315 316 323 329 326 328 332 332 332 330 331 334 330 327 326 323 319 316 314 313 311 311 311 310 310 310 309 309 309 310 310 310 310 310 311 311 311 312 312 312 312 313 314 315 316 317 320 321 322 325 326 326 327 328 329 330 330 330 331 332 332 332 332 332 332 331 330 331
316 316 323 326 322 323 323 318 316 315 314 316 319 319 318 316 316 319 317 314 322 330 326 328 332 329 327 329 330 330 328 325 323 319 316 314 312 311 310 310 309 309 308 308 307 307 307 308 308 309 309 309 309 309 309 310 310 310 310 311 311 312 313 314 316 318 320 323 325 327 328 328 328 329 329 329 330 331 331 331 331 332 331 330 330 331
326 326 326 320 317 322 321 317 318 317 318 323 325 325 323 318 321 331 329 320 321 325 324 329 333 327 325 326 325 323 322 320 319 316 314 313 311 310 309 309 308 307 307 306 306 306 306 306 306 307 307 307 307 308 308 308 308 308 309 309 309 310 311 312 314 316 320 322 324 326 327 328 328 327 327 327 328 330 331 331 331 331 330 330 330 331
325 324 323 319 320 326 321 318 322 322 325 330 329 325 325 322 323 330 334 330 326 326 329 334 333 329 325 322 319 317 316 315 314 314 313 312 310 309 308 308 307 306 306 305 305 306 305 305 305 305 306 306 306 306 306 307 307 307 308 308 308 309 310 311 313 316 320 322 323 325 326 327 328 328 327 327 327 329 331 331 331 331 330 329 330 331
318 318 324 325 324 326 325 323 324 327 331 331 326 323 323 322 322 321 325 332 331 325 328 333 331 328 324 319 316 316 314 312 312 311 311 310 309 308 307 307 306 306 305 304 304 305 304 305 304 304 305 304 305 305 305 306 306 306 306 307 307 309 310 311 312 316 319 320 322 324 324 326 327 327 327 327 327 327 330 331 330 330 330 329 329 329
324 320 328 335 331 328 329 328 325 326 329 327 322 321 321 321 323 321 322 331 329 321 323 332 331 326 322 318 317 316 313 313 311 310 309 308 308 307 306 306 305 305 304 304 303 304 303 304 304 303 304 303 303 304 304 304 304 305 305 306 306 307 309 310 312 315 316 316 319 321 323 324 325 325 326 327 327 327 328 330 330 329 329 329 329 327
327 318 321 331 333 330 329 326 322 323 329 328 322 320 320 318 320 323 326 329 326 322 325 331 328 324 322 319 318 316 313 312 311 309 308 307 306 306 305 305 305 304 303 303 302 303 302 302 302 302 302 303 302 302 303 303 303 303 304 305 305 306 307 308 311 314 315 317 318 320 322 323 324 325 325 326 327 327 328 329 329 329 329 329 329 327
329 322 318 319 320 320 320 319 319 319 322 323 319 319 320 317 320 332 333 326 323 324 327 328 325 324 323 319 316 314 312 310 309 307 307 306 306 305 304 304 304 303 303 302 302 302 301 301 302 302 302 302 302 302 302 302 303 303 303 304 305 305 306 307 308 310 313 315 317 319 321 323 324 324 325 325 326 326 327 327 328 328 328 328 328 328
329 324 318 317 317 316 317 318 318 317 317 317 318 319 319 318 323 332 329 320 323 329 329 326 324 322 319 316 314 312 309 307 307 306 305 305 304 304 304 303 303 302 302 301 301 301 300 301 301 301 301 301 301 301 301 302 302 303 303 304 304 305 306 306 307 308 309 311 314 317 319 322 324 324 325 325 325 326 326 326 327 328 328 328 328 328
326 321 316 317 317 316 316 317 317 317 317 317 316 316 317 318 319 322 320 318 323 329 326 322 320 316 314 312 311 309 307 306 305 304 304 303 303 303 303 303 302 302 301 301 301 300 300 301 301 301 301 301 301 301 301 301 302 302 303 303 304 304 305 306 307 307 308 308 311 314 317 320 323 324 324 325 325 325 325 326 327 327 327 327 327 327
324 322 319 320 320 317 316 316 316 316 316 317 316 315 316 317 318 318 318 318 320 321 319 317 317 313 310 309 308 307 306 305 305 304 303 303 302 302 302 302 301 301 300 300 300 300 300 301 301 300 300 300 300 301 301 301 302 302 303 303 303 304 305 306 307 307 307 307 309 312 315 318 320 322 324 325 325 325 325 326 326 326 326 326 326 326
327 322 319 322 323 319 315 316 317 317 317 318 317 315 316 317 317 317 316 316 318 318 317 318 317 313 308 307 306 305 304 304 304 303 302 302 302 301 301 301 301 300 300 300 300 299 300 300 300 300 300 300 300 300 300 301 301 302 302 302 303 303 304 305 306 307 307 307 308 309 312 315 317 319 322 324 324 325 325 325 325 325 325 325 325 326
324 321 321 323 324 320 317 318 320 321 324 323 317 314 315 316 315 315 314 314 315 316 318 318 316 310 307 306 305 304 304 303 303 302 302 302 301 300 300 300 300 300 299 299 299 299 299 299 299 299 299 300 300 300 300 301 301 301 301 302 302 302 303 304 305 306 306 307 307 307 309 312 315 316 319 322 324 324 324 325 325 324 324 324 324 325
319 321 322 322 323 322 317 318 321 324 325 321 314 312 314 314 314 314 313 312 312 313 312 311 309 307 306 305 305 304 303 302 301 301 301 301 300 300 300 299 299 299 299 298 299 299 299 299 298 299 299 299 299 300 300 301 301 301 301 301 302 302 302 303 304 305 306 306 306 306 307 309 312 314 316 319 322 324 324 324 323 323 323 323 323 324
320 323 323 320 321 322 318 319 325 325 320 314 311 311 311 311 311 311 311 310 310 309 309 308 307 306 305 304 303 302 302 301 300 300 300 300 300 300 300 299 299 299 298 298 298 298 298 298 298 298 298 299 299 300 300 300 300 301 301 301 301 301 302 302 303 304 305 305 306 306 306 307 309 311 314 316 319 320 321 321 320 320 321 321 321 321
321 323 322 320 320 320 320 322 324 320 313 311 312 312 311 312 312 313 313 311 309 308 308 307 306 304 303 302 301 301 300 299 299 299 299 299 299 299 299 299 299 299 298 298 298 298 298 298 298 298 299 299 299 299 300 300 300 300 301 301 301 301 301 302 303 304 304 304 305 305 306 306 306 308 310 312 313 314 314 314 314 316 317 317 318 316
321 322 322 321 320 318 318 318 316 315 314 313 313 312 312 313 314 314 314 312 309 308 306 305 305 304 302 302 301 300 300 300 300 300 299 299 299 299 299 299 299 299 298 298 298 298 298 299 299 299 299 299 299 299 299 299 299 300 300 300 300 300 300 301 302 302 303 303 304 305 305 305 305 306 307 308 308 308 307 307 307 309 311 312 312 310
319 322 324 324 319 315 315 315 314 316 317 315 313 312 311 312 312 312 313 313 309 307 305 304 304 303 302 301 300 300 301 304 304 301 299 299 299 299 299 299 299 299 298 298 298 299 299 299 299 299 299 299 299 299 300 299 299 299 299 299 299 299 299 300 300 300 301 302 303 305 305 305 304 304 305 305 305 304 304 304 304 304 306 308 307 306
316 318 322 323 319 316 318 319 317 317 316 313 312 310 309 311 312 312 316 316 309 305 305 304 303 302 302 301 301 301 304 307 305 300 299 299 298 298 298 298 298 298 299 299 299 299 299 299 300 300 300 299 299 299 300 300 300 299 299 299 299 298 298 298 298 299 300 301 303 305 306 304 304 304 303 303 304 303 302 301 301 302 303 305 305 305
320 320 322 321 318 317 319 319 316 314 312 310 310 310 310 310 310 313 319 317 310 306 305 304 303 302 302 302 302 302 305 306 303 299 299 298 298 298 298 298 298 298 299 299 299 299 299 299 299 300 299 299 299 299 299 300 300 299 299 299 298 298 298 297 297 299 301 303 304 305 306 305 304 303 303 302 302 302 302 300 300 302 303 304 304 305
319 319 318 318 317 316 317 317 314 312 310 310 310 309 309 310 311 316 319 313 308 307 306 304 304 303 302 303 303 302 301 301 300 299 299 298 298 298 298 298 299 299 299 299 299 299 299 299 299 299 299 299 299 299 299 299 299 299 299 299 299 299 298 297 297 299 302 303 304 304 305 305 305 304 303 302 302 302 303 302 301 302 303 303 304 305
318 316 315 315 315 313 313 314 314 312 309 308 309 308 308 312 315 315 312 307 306 307 306 305 305 304 303 302 301 300 299 299 298 298 298 298 298 298 298 298 299 299 299 299 299 299 299 299 299 299 299 299 299 299 299 299 299 299 299 299 299 299 298 297 297 298 300 302 303 303 303 304 304 304 303 303 302 302 302 303 303 302 303 304 304 304
314 314 314 312 311 311 313 314 316 315 309 306 308 309 310 313 313 309 305 304 304 303 303 303 303 302 301 300 299 299 299 298 298 298 298 298 298 298 298 298 298 298 299 299 299 299 299 299 299 299 299 299 299 299 299 299 299 299 299 299 299 299 299 298 297 297 299 300 301 302 303 303 304 304 303 303 302 302 301 302 302 303 304 303 303 302
309 311 313 310 308 313 317 315 312 310 305 304 308 310 310 308 306 304 303 303 302 301 301 301 300 300 299 299 298 298 298 298 298 298 298 298 298 297 298 298 298 298 298 298 299 299 298 299 298 299 299 299 299 299 299 299 299 299 299 299 299 300 300 299 298 297 297 298 298 299 301 302 303 304 303 303 303 302 302 301 301 302 302 303 302 302
307 308 309 307 305 308 311 309 305 305 305 305 307 307 306 305 303 303 303 302 301 300 300 299 299 299 298 298 298 298 298 298 298 298 298 298 297 297 298 298 298 298 298 298 298 299 299 299 298 299 299 298 299 299 298 299 299 299 299 299 300 300 300 300 299 298 297 297 297 298 299 301 303 303 303 303 302 302 302 302 301 301 301 302 303 302
305 305 306 306 305 306 306 305 305 306 307 306 305 304 304 303 303 302 301 301 300 300 299 299 298 298 298 298 298 297 297 298 297 297 298 298 297 298 298 298 298 298 298 298 299 299 299 299 299 299 299 299 299 299 298 298 299 299 299 299 299 300 300 300 300 299 298 297 296 296 298 299 301 302 303 303 302 301 301 301 301 300 301 301 302 302
305 307 307 306 306 306 307 306 306 306 306 304 304 304 302 302 302 301 301 300 299 299 298 298 298 298 297 297 297 297 297 298 298 299 298 298 298 298 298 298 298 298 298 298 299 299 299 299 299 299 299 299 299 299 299 298 298 299 299 299 299 299 300 300 300 300 300 299 297 296 296 297 297 299 300 302 302 302 301 301 300 300 300 300 301 301
306 306 306 305 306 306 306 306 305 305 304 303 303 303 302 301 301 300 299 299 298 298 298 297 297 297 297 297 297 298 299 298 299 300 300 298 297 298 298 298 298 298 298 299 299 299 299 299 299 299 299 299 299 299 299 299 299 299 299 299 299 299 299 299 300 300 300 300 299 298 297 296 296 296 297 298 300 301 301 301 301 300 300 300 300 301
306 306 305 305 305 305 305 305 304 304 303 303 302 302 301 301 300 299 299 298 298 298 298 297 297 296 297 297 296 297 300 299 297 297 298 298 298 298 298 298 298 299 299 299 299 299 299 299 299 299 299 299 299 299 299 299 299 299 299 298 298 298 298 298 299 299 300 300 300 299 298 297 296 296 295 295 296 297 298 299 300 300 300 299 299 300
306 306 304 305 306 306 305 305 304 305 304 303 302 301 300 300 299 298 298 298 298 298 298 298 297 296 296 297 296 296 299 299 297 297 298 298 298 299 299 299 299 299 300 300 299 299 299 299 299 299 299 299 299 299 299 299 299 299 299 298 298 298 297 297 298 298 299 299 299 300 299 298 297 296 296 296 295 295 296 296 298 298 298 298 298 298
306 305 304 306 307 306 305 304 304 304 303 301 301 300 299 299 299 298 299 299 298 297 297 298 299 299 297 297 297 297 297 297 298 299 298 298 299 299 299 299 300 299 299 299 299 299 299 299 298 299 299 299 299 299 299 299 299 299 299 298 298 298 297 297 297 297 298 298 299 299 299 299 298 297 297 296 296 296 296 296 296 296 296 296 297 297
Wind_Speed
4 4 3 4 6 6 7 7 7 6 6 7 5 5 4 1 3 5 6 5 3 4 4 4 4 8 7 7 9 8 8 11 9 6 4 2 2 2 1 3 5 5 3 1 4 5 6 7 9 10 11 14 16 17 18 19 20 20 19 19 17 14 13 16 22 25 27 26 23 24 26 26 26 25 22 20 19 19 21 20 21 21 20 20 21 20
4 5 5 7 8 7 7 6 7 7 6 6 5 5 3 2 4 6 5 5 1 3 3 4 11 8 5 6 8 9 11 12 9 7 5 3 3 3 3 3 3 2 1 2 5 7 8 7 9 10 10 12 13 13 15 17 19 20 21 21 17 14 14 16 20 25 26 24 21 22 25 28 27 25 21 18 18 19 20 19 20 23 22 21 21 21
3 4 8 7 6 5 5 4 7 7 6 5 4 4 1 2 3 6 5 5 3 3 1 7 12 6 5 4 8 11 9 6 7 7 7 6 3 2 4 3 1 1 1 3 5 7 8 8 9 10 11 11 10 10 12 15 18 20 22 23 19 16 15 16 19 22 21 20 20 18 18 23 23 21 19 17 18 20 20 19 22 23 22 21 21 21
3 4 8 6 7 8 6 4 7 6 4 4 4 4 1 3 1 3 4 4 4 3 3 8 10 6 6 5 7 9 6 6 8 7 8 8 6 3 2 4 4 5 4 4 4 5 6 6 8 9 9 8 7 9 11 13 15 16 18 20 20 18 18 18 19 19 17 15 17 15 14 17 18 15 15 16 17 17 17 20 23 21 20 21 21 20
5 5 5 8 6 7 6 4 6 6 2 1 3 5 3 3 3 4 4 5 4 3 3 7 7 5 6 7 7 6 6 10 11 10 12 11 9 6 4 3 2 2 2 4 5 5 5 6 7 6 7 6 7 9 11 13 12 11 13 15 18 19 19 19 18 16 15 13 13 15 13 14 15 12 14 17 16 15 16 21 23 19 18 19 19 19
5 4 6 9 5 5 7 4 5 6 4 1 3 6 7 6 5 5 3 5 5 3 1 4 6 3 6 7 7 6 7 10 10 12 14 12 11 9 7 6 5 5 3 2 4 6 6 6 5 5 6 6 8 9 10 12 12 12 13 14 15 16 16 17 16 14 13 11 12 18 19 17 16 15 17 20 19 18 20 22 21 18 17 17 16 16
2 4 6 8 6 6 6 3 4 5 6 1 5 8 8 6 4 5 2 2 2 2 1 3 6 2 4 6 7 5 6 9 10 14 14 11 11 9 8 7 7 7 6 3 4 5 4 2 1 1 5 6 8 10 10 11 11 12 13 12 13 13 12 14 15 14 13 11 15 21 22 20 19 18 18 20 21 22 22 21 19 17 15 15 15 15
3 6 5 6 6 5 4 3 5 6 8 3 6 8 8 6 6 5 3 3 1 3 1 4 5 5 0 3 6 5 5 10 12 14 13 11 11 10 9 9 9 9 8 6 4 3 4 7 8 5 4 6 8 9 9 8 9 11 11 10 11 12 11 12 13 13 13 14 19 22 22 19 18 18 17 19 21 22 21 20 19 16 14 15 16 16
4 7 7 7 5 3 4 5 8 9 6 5 5 7 8 6 6 5 5 3 1 0 2 6 5 5 1 3 5 5 6 10 12 12 12 11 11 10 10 11 10 10 9 9 8 7 9 11 11 8 5 5 5 6 6 5 7 10 11 10 9 10 10 11 12 12 12 16 20 22 22 18 15 15 14 16 18 19 18 19 19 18 17 19 19 18
2 6 8 8 5 5 6 6 10 11 5 5 5 7 4 5 4 4 5 3 3 3 3 6 4 4 1 3 3 3 5 7 8 8 8 10 10 9 10 10 10 9 9 9 9 10 12 12 10 8 7 7 6 4 5 5 6 9 11 11 8 8 9 10 12 11 12 15 17 17 18 16 13 12 12 13 15 16 17 18 19 20 20 21 20 19
1 1 4 5 5 6 6 5 9 12 7 6 7 6 6 5 5 3 3 3 4 2 5 5 3 4 2 2 3 3 3 3 4 5 6 8 9 9 9 9 9 9 8 9 9 9 12 13 12 11 10 11 11 10 9 8 7 7 9 10 9 8 7 8 11 11 10 13 13 12 12 12 11 11 11 12 13 14 14 15 18 20 20 19 19 19
5 2 2 3 4 5 5 4 3 4 5 6 5 5 5 3 4 4 4 4 4 2 5 4 4 5 3 1 2 4 4 4 4 4 6 7 9 8 8 9 9 9 8 8 8 8 10 12 13 14 13 13 13 12 13 13 12 9 8 7 8 8 7 7 10 11 11 11 12 11 9 9 10 10 11 11 12 13 13 15 18 19 19 19 18 19
3 2 3 4 2 5 7 4 3 2 2 5 5 6 6 1 2 2 2 1 2 3 3 4 3 4 2 0 2 3 4 5 4 5 6 7 9 9 9 9 9 9 9 9 8 8 8 9 12 14 13 14 15 14 14 15 15 14 12 11 11 11 10 9 10 12 13 13 13 12 10 10 12 13 14 14 15 16 17 18 19 20 20 20 20 20
1 4 4 1 2 3 8 5 3 2 3 5 6 6 6 3 3 2 1 0 1 2 2 5 3 2 1 1 2 3 5 5 5 7 8 8 9 9 8 9 9 9 9 8 8 9 9 11 14 16 16 16 16 17 18 18 16 15 13 14 15 14 12 11 12 13 14 15 15 14 12 13 15 17 18 19 19 19 20 20 18 21 23 22 21 21
4 3 4 4 3 4 8 7 7 7 5 5 5 6 6 4 5 4 3 3 2 1 3 5 3 2 2 1 0 1 4 6 7 8 8 8 8 7 8 10 10 10 9 8 9 9 10 13 16 18 19 19 18 19 20 20 18 15 13 13 15 16 15 14 14 15 15 14 15 15 15 16 17 18 19 20 21 21 21 20 18 20 24 23 21 20
4 4 7 3 1 6 8 5 5 8 4 2 3 6 4 5 5 3 3 5 5 3 2 3 1 1 1 1 1 0 4 7 8 8 8 8 8 8 9 9 9 9 9 9 9 9 12 16 18 19 20 20 20 21 21 20 18 16 15 14 14 15 16 16 16 15 14 12 12 12 15 18 20 20 21 22 23 22 21 20 19 19 21 22 20 19
3 3 6 1 1 6 7 5 5 6 4 2 3 4 4 4 8 6 2 2 4 4 1 2 1 0 1 1 1 1 5 8 8 8 8 8 9 10 9 8 8 8 8 9 9 9 11 15 16 17 18 19 21 21 20 19 18 17 16 17 17 16 17 17 16 14 14 13 12 11 14 20 24 25 25 24 25 23 19 18 18 17 18 20 19 19
4 2 5 1 4 4 3 6 4 2 5 5 3 5 3 3 5 5 3 3 4 3 0 2 1 2 1 1 1 2 6 8 7 8 9 9 10 9 8 8 9 8 8 9 10 10 12 14 16 18 18 19 19 20 19 18 18 17 18 19 19 19 18 16 14 13 15 17 16 14 15 19 25 27 27 25 24 21 16 15 15 15 17 19 19 19
3 1 6 2 3 2 2 7 5 5 2 4 6 5 4 4 2 2 3 2 3 3 1 0 2 1 2 2 2 4 7 8 7 7 9 9 9 8 8 9 10 10 9 9 9 9 11 14 16 18 19 19 20 20 19 20 20 20 21 21 20 19 18 15 13 14 18 20 19 19 17 17 22 24 23 21 18 15 13 14 15 16 18 20 19 20
2 3 2 3 1 0 3 4 3 0 5 5 5 3 2 3 4 3 3 3 4 4 2 2 2 2 4 3 2 4 7 8 7 7 9 9 9 8 7 8 9 9 8 8 8 9 10 13 14 16 17 18 19 20 21 21 22 23 24 23 22 20 20 18 16 17 18 17 17 18 15 14 18 19 17 17 17 17 16 16 17 18 20 20 20 21
2 3 2 4 4 1 1 0 4 6 3 4 3 2 1 2 3 3 2 2 4 5 3 3 2 4 4 3 2 3 6 7 7 8 8 9 9 8 8 8 7 7 8 8 8 8 10 13 14 15 16 18 19 21 22 22 23 24 25 25 25 23 22 22 21 21 20 18 14 14 15 16 18 17 15 16 18 19 18 17 18 19 20 20 21 22
1 2 3 1 4 2 2 4 4 6 5 5 4 4 4 4 4 4 2 1 3 4 4 5 3 4 3 0 1 3 5 7 8 9 9 9 9 8 8 8 7 7 8 8 7 8 10 12 14 14 17 19 19 21 23 23 24 26 26 26 26 25 25 25 24 22 21 19 15 12 15 17 17 17 17 17 17 17 17 18 19 20 20 21 22 23
3 4 4 1 1 1 3 3 0 3 6 7 4 2 4 4 5 6 4 3 3 3 2 3 2 2 1 3 4 5 6 8 8 8 9 9 8 8 8 8 8 8 8 8 8 9 11 12 13 14 16 18 19 21 23 24 24 25 26 26 25 26 27 26 25 23 21 18 13 12 14 13 13 14 14 14 16 18 19 19 20 20 21 22 23 24
2 4 4 1 3 3 3 3 4 4 7 7 4 3 3 2 3 5 5 4 4 3 2 3 1 2 2 4 6 6 7 9 7 6 9 9 6 7 8 8 8 8 8 9 9 11 12 14 14 15 16 18 19 20 22 22 23 24 26 28 27 27 27 26 25 24 21 17 14 13 13 11 12 13 12 15 18 21 20 19 20 21 21 22 24 25
1 1 4 3 2 4 4 4 5 5 5 4 2 4 2 3 5 4 2 4 4 4 4 4 2 2 3 5 6 7 8 9 7 6 9 8 5 6 7 7 7 7 8 9 9 10 12 13 14 15 16 17 18 19 20 21 23 24 26 28 28 28 29 27 25 24 20 18 16 13 12 13 13 11 12 16 19 20 20 20 21 22 23 23 24 26
3 2 3 5 4 3 1 1 1 0 2 2 2 5 5 4 5 4 3 4 3 5 4 5 3 3 5 7 7 7 8 8 7 7 9 7 6 6 6 6 7 7 8 9 9 9 10 12 14 15 16 17 18 19 20 22 23 24 25 26 27 27 28 27 26 24 21 18 16 13 12 14 14 11 12 15 16 17 20 22 23 24 25 25 24 26
5 3 4 5 5 4 4 3 2 2 3 2 3 6 6 4 2 4 5 2 4 5 2 3 5 7 7 7 7 7 7 6 5 7 9 7 6 6 6 6 6 6 7 8 8 9 10 11 13 16 17 17 20 21 21 22 23 24 25 26 27 27 26 26 25 24 23 21 19 17 14 14 14 12 13 14 15 18 21 23 25 26 27 26 25 26
6 3 4 7 8 3 2 2 3 5 6 4 4 6 7 5 3 5 4 3 6 7 1 4 7 9 8 7 7 6 6 6 6 8 8 6 5 5 6 6 7 8 7 8 9 9 10 10 11 14 16 17 19 21 20 21 22 22 23 25 27 28 27 26 25 24 23 22 22 20 17 15 14 13 13 14 16 19 22 23 24 26 27 27 26 26
7 3 2 6 8 7 5 5 7 10 9 8 9 9 9 7 5 5 3 2 4 5 4 8 10 7 6 7 6 6 6 6 7 8 7 6 6 6 7 7 8 8 8 8 9 9 9 9 10 12 14 15 17 18 19 20 22 23 24 25 26 27 27 26 25 25 24 23 22 21 18 16 14 14 14 15 17 19 21 23 25 26 27 28 27 26
5 3 1 6 8 9 8 6 7 10 9 9 11 10 9 9 8 7 3 2 5 5 5 12 13 7 5 6 7 7 7 6 7 8 7 7 7 7 8 8 7 8 8 8 9 8 8 9 11 12 13 14 15 17 18 20 22 23 24 25 26 27 26 25 26 27 26 25 24 22 19 17 15 14 15 17 18 19 20 24 27 27 27 29 29 28
4 3 2 3 6 6 7 7 8 9 11 11 11 10 10 8 8 7 4 4 6 7 9 13 11 6 4 5 7 7 6 6 7 7 7 7 7 8 8 8 7 8 8 8 8 8 8 9 11 11 12 13 15 17 18 19 21 23 24 25 26 26 26 25 26 27 27 27 27 24 21 20 17 15 15 17 19 20 21 25 27 27 28 29 29 27
4 5 2 3 5 2 2 5 6 7 11 11 9 10 10 7 5 5 4 4 2 7 13 11 6 4 4 6 7 7 7 8 8 7 7 6 7 8 8 7 7 7 8 7 7 8 8 9 10 11 12 14 17 18 18 19 21 22 23 24 25 26 26 26 26 26 27 28 29 27 24 22 20 18 15 17 19 20 21 25 27 27 27 28 27 25
3 6 4 2 4 2 3 1 3 4 5 5 4 5 4 2 4 4 5 6 4 4 8 5 4 6 6 6 7 7 7 8 7 7 6 6 7 8 7 7 7 7 7 7 7 8 8 10 12 13 14 16 18 18 19 20 21 21 22 23 23 25 26 27 28 27 27 29 30 29 27 25 22 19 16 15 19 20 20 24 27 26 26 27 26 26
4 6 4 2 4 4 4 3 4 3 2 0 3 3 1 2 6 7 6 7 6 4 5 5 6 8 7 6 7 7 7 7 7 7 7 7 6 6 6 7 6 6 7 6 7 8 9 12 14 15 17 18 19 19 20 21 21 20 21 22 23 25 26 27 29 29 29 30 31 30 29 26 23 20 16 12 14 17 19 22 24 22 24 26 25 26
5 5 3 2 3 4 1 3 3 2 2 1 1 2 4 7 9 11 10 9 7 7 9 10 9 7 7 7 7 8 8 9 9 9 8 8 7 5 6 6 6 6 6 6 6 8 11 13 15 17 18 19 20 21 21 22 21 20 22 24 25 26 26 26 29 31 31 31 31 31 29 27 24 20 17 13 7 7 9 14 16 17 20 22 22 23
6 4 3 3 3 3 2 3 2 3 2 1 1 1 2 3 5 8 9 8 6 5 7 9 8 8 9 9 7 8 9 9 9 8 8 7 6 5 5 5 5 5 5 6 7 9 12 14 15 16 17 19 21 23 23 23 21 20 22 25 27 27 27 28 30 31 31 31 31 31 29 27 25 22 18 15 11 7 5 5 9 14 17 19 19 18
5 5 4 3 2 3 3 3 3 2 1 1 1 2 0 1 1 3 4 4 4 3 5 8 9 9 9 8 7 7 7 6 6 6 6 6 6 5 5 5 4 5 7 9 10 12 14 15 16 17 19 21 23 24 24 24 22 21 23 26 27 27 28 30 30 30 30 29 30 30 29 27 26 24 20 17 16 15 13 11 10 12 15 18 18 15
5 4 5 3 1 2 4 3 2 2 3 3 3 1 0 2 2 3 3 3 2 3 5 8 8 8 9 8 7 6 4 2 4 3 4 5 6 5 6 6 7 9 10 12 13 15 16 16 17 19 21 23 24 25 25 25 24 24 25 27 27 27 29 30 29 28 28 28 28 29 28 27 26 25 22 19 18 18 17 15 15 14 16 19 19 17
9 4 4 5 3 2 4 3 2 2 2 2 3 2 2 0 1 2 3 1 3 5 6 7 9 8 7 7 6 4 2 1 2 1 2 4 5 6 6 7 10 12 13 15 15 15 16 16 18 21 23 24 24 25 26 26 27 26 26 27 28 29 29 28 26 26 26 26 27 28 27 26 26 25 23 21 18 18 19 19 19 19 20 22 23 23
7 5 4 5 3 3 4 2 1 1 1 0 2 1 2 1 1 3 1 2 5 7 6 7 8 8 7 7 5 1 1 1 3 3 2 5 6 6 7 8 10 12 15 17 18 16 17 18 19 21 23 23 24 25 25 26 28 27 26 27 29 30 28 26 24 24 25 26 27 27 27 26 25 24 23 21 19 19 20 21 22 23 25 26 27 27
4 4 3 4 4 4 4 2 0 1 1 1 1 2 2 0 1 1 2 3 4 7 6 6 8 7 6 5 3 2 3 4 5 5 4 5 6 6 8 10 12 13 16 18 19 19 20 20 21 22 23 24 25 25 25 25 27 27 27 28 30 29 27 26 24 25 26 26 26 26 26 26 24 23 22 20 20 21 21 22 22 24 27 28 28 29
2 2 3 2 3 3 3 3 1 1 1 1 1 2 1 1 2 2 2 3 5 7 6 6 6 7 6 5 5 6 5 6 7 6 5 5 5 6 9 12 14 16 18 19 20 20 20 21 23 25 25 25 26 26 26 25 25 26 28 30 29 27 27 28 27 27 27 27 26 26 26 25 24 22 21 20 20 22 22 23 22 24 26 28 28 28
2 2 2 1 2 2 3 3 2 1 1 1 1 0 0 1 2 3 4 5 6 7 8 7 6 7 8 8 7 8 8 7 7 6 5 6 6 7 10 12 13 14 16 17 18 19 19 20 21 23 24 26 26 26 27 27 26 26 27 28 28 28 28 30 30 29 29 29 28 27 26 25 24 23 22 21 21 22 22 23 23 24 25 26 27 28
1 1 2 2 1 2 3 2 2 2 1 1 2 2 2 2 3 5 5 5 5 6 6 6 6 7 9 10 9 8 8 7 6 6 6 6 6 8 10 11 13 14 14 15 16 17 18 18 19 21 23 25 25 25 26 26 26 27 26 26 26 28 29 30 31 31 30 30 29 29 27 25 23 22 22 22 22 22 23 23 23 24 24 24 26 28
1 2 3 2 2 3 3 2 2 1 2 2 2 3 6 6 6 6 7 6 5 5 5 6 7 7 9 10 9 8 7 6 6 6 5 5 6 7 8 9 11 12 12 13 15 16 17 17 18 20 21 22 23 24 25 24 24 25 24 23 24 26 28 30 31 32 32 31 29 29 28 26 24 22 22 22 22 23 23 22 23 23 24 25 27 28
2 3 3 3 4 4 4 4 3 4 6 7 6 6 7 7 5 6 8 7 5 5 5 6 8 8 8 9 9 7 6 6 6 6 5 5 5 6 6 8 9 10 11 12 13 14 14 15 17 19 20 20 20 21 23 23 23 21 21 21 22 23 25 27 30 32 32 32 30 28 28 28 27 24 22 21 21 22 22 22 21 22 22 23 25 26
0 1 3 4 4 3 3 3 4 7 8 8 8 8 8 7 6 5 7 7 7 7 7 7 8 8 7 8 8 8 7 6 6 5 4 4 5 5 6 8 8 8 9 9 10 11 11 13 14 16 18 18 18 19 21 22 21 19 18 20 22 24 25 26 27 28 30 30 30 29 28 28 28 27 26 23 21 20 20 20 20 20 20 19 19 20
0 1 3 4 3 3 5 5 6 8 8 7 7 6 7 8 8 7 8 8 9 9 9 10 10 8 7 7 8 8 6 5 5 5 4 4 6 7 7 8 8 9 9 9 10 11 12 13 13 14 16 17 17 19 20 20 19 18 18 19 21 23 25 25 25 25 25 26 27 28 27 26 26 27 28 27 25 22 20 19 19 20 19 17 15 16
1 3 3 4 5 6 6 7 8 9 9 7 7 7 6 7 9 9 9 10 9 9 9 10 11 10 10 9 9 8 6 5 6 6 5 5 7 7 7 8 8 9 9 9 10 11 12 12 13 13 14 15 15 17 19 17 16 16 17 19 20 21 23 23 22 22 22 22 23 24 25 24 24 24 25 26 26 25 23 20 19 19 18 17 15 13
2 3 4 6 6 5 5 6 6 6 6 5 7 7 7 8 10 11 10 9 8 8 8 9 10 11 11 11 11 9 6 5 6 8 7 6 6 6 6 6 7 8 9 9 9 9 9 10 10 10 11 12 13 15 17 16 15 14 15 16 17 19 20 20 20 19 19 19 20 20 20 21 22 22 21 22 22 23 23 21 19 18 18 17 15 13
3 5 5 5 4 4 6 7 5 5 6 6 7 8 7 8 10 11 10 8 8 8 10 9 8 8 7 8 11 11 8 6 7 8 8 7 6 5 5 6 7 9 9 10 10 10 10 11 11 10 10 10 10 12 14 14 13 13 14 14 14 15 16 17 16 17 17 16 16 15 15 16 17 18 19 18 18 19 20 19 19 18 18 17 16 15
Wind_Direction
131 135 179 179 190 194 191 177 160 160 139 128 113 100 118 135 280 264 260 268 140 131 246 210 107 57 36 0 350 344 25 38 13 17 52 56 66 41 58 133 164 189 211 174 165 163 156 178 202 204 199 203 210 218 219 215 216 218 217 216 212 211 207 200 208 215 215 210 204 201 202 206 213 215 214 208 205 219 231 237 240 240 240 235 223 221
112 154 210 204 193 189 180 165 136 122 104 100 112 93 81 192 262 260 254 300 62 145 283 78 82 52 20 11 6 15 34 27 7 18 25 25 99 103 116 152 180 174 73 134 158 162 164 180 199 206 205 202 206 216 219 217 217 218 220 221 218 218 215 211 216 219 218 216 213 211 208 207 212 215 215 209 205 219 231 234 239 241 240 237 225 221
119 183 225 211 178 125 95 116 113 110 102 88 110 104 53 240 277 286 280 329 19 130 339 76 83 43 340 360 30 34 35 23 17 34 29 20 42 100 140 149 168 169 181 185 181 169 169 186 197 203 206 200 207 223 225 219 216 217 220 223 226 226 225 222 221 220 220 222 222 226 222 213 212 211 210 210 214 223 227 228 235 237 235 235 228 222
148 229 224 179 141 111 80 86 102 94 88 87 112 125 227 263 319 294 289 334 12 92 123 108 91 46 348 358 39 36 26 25 26 37 41 31 12 332 199 171 182 192 195 190 185 167 165 194 203 210 215 205 211 230 235 228 220 220 224 228 231 234 235 230 222 222 230 235 231 234 234 223 217 209 201 208 223 229 227 228 231 229 228 232 231 227
181 225 174 129 139 136 111 108 120 114 98 89 142 137 176 235 197 222 278 331 1 53 103 111 81 25 353 8 22 10 15 30 23 28 36 28 17 0 350 338 278 225 196 176 169 156 163 195 204 215 230 230 229 234 241 238 232 230 233 238 240 240 239 232 227 233 245 248 235 227 224 220 219 210 195 197 209 220 223 228 230 227 226 229 231 231
203 209 129 123 154 144 122 143 164 149 142 243 221 178 188 193 202 242 303 8 32 39 340 92 82 5 324 5 15 349 17 34 25 29 32 25 23 22 15 2 352 4 24 118 147 161 174 194 198 216 239 249 248 247 252 251 248 244 242 245 246 243 236 229 231 245 252 239 220 217 212 207 207 203 195 191 192 203 217 226 227 224 225 225 224 226
183 170 132 129 152 148 133 164 204 157 127 204 232 195 187 165 180 245 246 74 87 179 246 81 109 153 308 354 359 340 19 37 33 33 29 26 27 25 23 19 19 24 28 65 124 162 167 135 109 263 272 277 273 271 273 271 267 260 255 252 245 240 237 234 237 247 249 221 207 214 211 206 210 209 202 197 200 208 218 225 226 223 223 224 223 223
155 153 136 118 128 141 145 179 214 155 124 218 232 169 160 152 173 206 148 120 222 220 310 26 96 126 87 324 325 326 22 32 30 31 24 23 28 28 30 29 34 36 33 50 80 97 58 45 46 31 321 299 287 281 282 283 277 268 268 267 251 242 245 246 241 241 239 216 203 205 205 208 223 223 209 203 209 215 220 222 219 216 216 217 221 223
152 160 169 148 128 153 184 196 190 153 138 237 212 144 154 156 165 159 111 100 352 22 287 339 46 102 164 284 315 345 34 30 23 24 19 19 25 30 36 36 39 42 40 45 52 55 52 49 49 47 22 344 304 280 284 295 291 275 275 281 267 250 252 254 246 235 222 209 202 202 205 214 230 227 211 205 210 215 218 217 211 209 209 209 214 219
157 183 177 151 148 194 205 191 170 160 182 222 147 104 99 89 81 91 102 109 41 53 242 299 18 106 213 309 348 13 37 22 10 19 15 17 29 35 39 41 41 42 45 49 50 53 55 58 60 57 41 21 3 332 313 314 310 295 288 287 275 254 252 255 254 243 216 202 202 206 214 224 228 215 201 202 210 215 215 214 212 211 210 207 209 213
337 199 157 146 172 192 186 170 169 172 170 149 119 76 59 50 36 44 59 88 71 9 261 283 345 103 127 325 21 39 41 18 4 23 21 19 31 37 40 45 45 44 46 49 51 52 53 55 54 51 47 36 24 9 2 6 353 326 307 295 283 268 260 258 259 254 227 208 208 215 223 230 226 210 201 201 208 217 221 225 225 217 211 212 212 211
350 44 166 215 191 142 118 110 154 179 138 111 111 96 85 26 14 25 356 48 93 263 270 303 354 69 104 236 36 46 59 55 40 42 33 28 34 37 40 41 43 44 43 44 46 47 46 45 39 36 35 35 31 18 12 19 18 7 354 328 306 294 289 280 271 266 254 234 223 226 234 240 238 230 222 211 206 216 232 246 247 232 217 216 217 212
325 236 261 295 230 137 116 93 48 33 86 98 109 119 120 62 32 49 313 46 142 234 279 329 360 65 86 114 43 45 66 65 67 65 47 39 41 41 40 38 39 40 37 37 37 37 40 38 35 32 27 27 30 24 17 14 8 4 1 353 338 319 305 295 285 279 273 261 243 235 238 241 242 241 235 227 220 221 227 237 247 243 229 220 218 215
255 276 293 317 259 171 136 134 130 154 161 138 137 142 142 128 120 160 259 287 202 227 306 336 12 84 93 89 54 58 85 81 76 69 55 49 48 43 42 41 41 40 36 33 32 32 33 30 31 31 28 28 28 26 24 19 11 3 353 346 339 328 313 299 290 283 275 268 258 250 250 246 240 239 237 233 231 229 229 232 238 240 234 226 221 217
151 252 239 178 215 183 159 170 166 153 150 158 153 136 147 155 142 170 195 168 179 178 335 344 35 132 193 140 350 50 103 90 75 69 61 58 51 45 45 40 36 36 32 30 30 31 27 25 28 28 26 27 28 28 27 24 20 11 358 343 329 320 313 304 296 287 276 266 259 253 252 250 243 241 244 244 240 237 238 239 236 234 234 231 225 219
134 223 246 226 175 164 171 188 142 122 117 177 136 105 155 187 137 126 175 161 151 119 5 341 77 188 222 176 252 215 108 91 81 77 70 62 52 48 46 39 33 30 28 26 25 24 21 21 24 25 23 21 24 27 25 22 19 12 2 349 330 315 306 299 297 298 292 274 261 257 253 252 249 246 247 248 245 242 243 243 239 235 234 233 228 222
119 250 277 312 194 185 174 171 144 139 143 127 124 151 204 178 117 117 155 71 92 111 43 308 183 96 355 219 267 107 115 103 91 82 73 61 53 49 43 38 32 27 30 28 24 20 17 18 22 22 21 19 21 24 22 19 17 12 3 353 342 330 317 308 305 310 306 288 274 267 254 249 250 251 248 246 244 241 243 245 243 242 238 235 232 225
143 243 292 154 192 236 165 125 89 86 139 125 154 185 178 93 89 109 123 34 49 107 287 317 142 135 152 218 264 180 142 117 97 84 74 57 51 49 40 37 30 23 29 27 23 19 14 16 18 17 16 17 19 19 18 18 16 13 9 3 356 349 342 329 313 297 284 277 271 263 254 246 247 253 255 251 246 241 242 246 246 246 240 236 234 228
127 151 295 277 175 286 44 98 71 7 36 126 153 153 116 122 135 87 124 136 98 114 208 356 106 168 202 210 227 196 158 126 105 90 78 64 55 47 37 35 27 23 25 21 19 15 10 12 12 12 12 12 15 15 13 15 15 13 11 9 4 359 357 349 325 296 278 271 264 259 258 253 249 252 256 258 256 248 244 242 242 244 241 236 233 227
114 115 271 282 224 35 30 77 133 53 19 55 99 91 59 130 154 147 141 145 131 139 180 150 135 236 225 214 218 181 151 134 123 103 87 76 66 54 44 37 26 23 23 17 18 13 10 11 8 10 11 9 12 13 11 11 10 9 8 7 4 359 356 351 341 329 316 301 280 265 263 267 264 259 258 264 264 257 248 236 231 236 238 235 230 224
67 100 173 290 330 68 109 192 182 171 109 76 94 103 62 73 115 135 89 76 120 138 154 142 180 252 242 221 224 154 136 132 121 103 89 79 72 62 52 44 29 23 23 20 19 14 11 10 8 8 8 11 15 13 12 10 6 6 5 3 2 358 354 350 346 345 341 334 315 283 263 262 266 262 255 255 256 254 251 242 235 235 235 232 228 222
123 125 151 306 6 58 235 268 221 190 159 134 140 162 154 122 114 119 96 14 100 122 158 155 181 254 268 173 99 94 110 113 108 102 91 78 71 63 53 46 36 28 25 20 17 14 11 8 5 3 4 8 11 9 8 8 5 5 4 2 1 358 355 351 350 350 346 343 336 304 273 262 263 265 261 254 251 250 248 242 239 237 233 229 224 222
148 104 94 61 10 184 249 308 53 147 114 98 99 139 135 120 118 126 167 200 96 92 145 123 127 245 352 73 80 75 81 88 93 99 93 80 68 63 55 45 39 32 25 20 17 14 10 6 3 3 3 3 3 3 4 4 3 3 2 1 359 357 356 354 355 356 351 345 333 307 297 283 268 268 269 262 254 247 242 239 236 236 235 229 223 221
108 86 84 34 311 310 309 346 14 52 74 75 47 30 82 114 128 138 167 161 124 143 141 83 89 195 116 91 88 85 83 78 72 79 85 81 69 64 59 48 40 32 22 17 15 12 8 6 5 4 3 1 360 0 1 1 2 1 1 2 360 358 359 359 358 359 357 350 332 314 316 301 269 256 251 252 248 240 236 237 234 232 231 228 226 222
144 105 92 90 25 359 359 358 359 11 40 70 41 351 1 108 110 121 123 83 110 184 159 121 176 198 130 113 98 91 88 80 69 68 75 72 61 59 56 48 42 33 25 17 12 11 8 7 5 2 360 358 358 358 358 358 360 359 360 1 0 1 4 3 1 1 2 355 338 320 309 297 285 273 256 252 248 238 231 232 232 229 223 222 226 223
113 107 98 119 139 149 154 236 233 78 33 50 33 359 3 64 99 125 120 82 127 187 153 133 166 151 127 121 111 106 97 89 82 74 71 63 53 55 53 48 41 33 26 18 11 10 8 6 4 1 359 360 360 359 357 356 358 358 358 359 360 1 2 1 2 3 2 356 346 329 310 305 308 303 280 266 256 244 233 230 232 229 222 219 222 222
100 69 64 101 123 162 185 219 239 133 91 55 358 6 14 10 29 100 114 141 162 151 151 198 166 143 142 138 125 115 100 93 84 73 70 60 48 52 53 51 47 37 28 20 15 12 10 8 4 1 0 359 359 359 357 356 357 357 356 358 360 1 0 360 2 5 2 357 352 343 328 319 318 310 294 281 265 250 237 231 233 231 225 220 219 220
101 62 35 69 70 68 109 75 55 79 89 86 54 29 25 4 6 88 115 195 155 128 195 222 157 139 143 136 121 111 100 92 79 70 69 58 45 52 52 47 45 39 29 24 20 13 9 5 0 1 1 358 356 354 353 355 357 358 358 359 1 3 3 1 1 5 5 1 356 349 338 324 314 308 301 288 272 258 245 237 235 232 228 224 219 220
104 71 35 83 68 45 34 47 75 87 85 73 64 47 31 24 41 88 117 219 144 138 188 165 137 125 122 117 106 99 97 90 80 74 71 60 47 50 50 43 40 34 28 26 20 12 6 360 356 358 358 354 352 350 351 353 356 359 2 4 4 6 7 5 4 6 6 4 359 353 344 328 312 304 299 288 276 268 254 241 234 228 226 224 220 220
99 76 97 101 77 45 26 28 67 89 89 65 52 46 40 41 52 68 82 78 80 92 130 127 116 94 83 100 95 89 89 87 84 76 68 62 51 49 49 41 37 33 28 23 16 8 0 354 353 355 353 351 350 351 353 356 357 0 3 5 7 8 9 9 9 10 9 6 2 357 348 335 319 305 297 287 277 270 258 243 233 224 219 218 216 216
85 136 186 100 76 41 27 50 68 84 90 71 48 37 34 36 38 39 46 56 60 76 100 107 105 92 84 96 89 83 80 76 76 71 66 61 52 50 45 37 35 34 25 17 11 4 354 349 349 350 352 352 353 357 359 359 0 4 5 7 8 9 11 13 13 12 11 9 7 3 354 341 327 311 297 285 276 267 255 245 235 224 215 211 209 210
73 131 165 74 83 55 23 72 66 70 82 71 43 26 23 28 41 37 29 18 45 124 121 113 114 125 124 109 91 79 75 72 68 65 63 58 52 50 42 33 33 31 22 12 4 355 347 347 348 347 352 356 357 1 4 4 5 6 7 8 10 11 14 17 16 13 11 12 12 9 2 352 339 326 306 285 274 265 254 243 234 223 212 206 204 205
85 129 143 101 97 136 225 272 4 26 71 61 15 356 360 38 83 62 31 12 10 122 130 126 133 130 126 120 103 88 82 77 67 59 55 52 55 54 44 36 32 27 20 7 357 352 348 349 349 348 355 0 360 2 8 11 11 9 8 10 13 15 17 20 19 16 13 13 14 12 8 2 352 343 326 295 275 266 252 237 227 217 208 205 204 203
77 112 134 116 103 152 221 302 18 65 117 288 311 321 313 128 100 80 54 27 23 60 99 98 107 117 119 118 114 108 98 83 72 64 56 52 55 54 46 40 30 24 19 2 353 352 350 352 354 356 2 6 5 7 14 18 17 14 15 17 18 19 20 21 22 19 15 14 14 14 13 9 3 355 344 322 284 264 245 228 219 209 202 203 201 198
97 90 101 81 96 142 187 18 65 168 230 280 354 46 90 105 98 90 73 47 46 80 102 103 103 107 107 105 109 110 102 89 77 65 55 50 49 50 51 43 29 24 16 359 353 353 354 358 1 3 6 10 11 12 15 19 19 18 21 23 23 23 21 23 25 23 19 15 14 15 16 14 11 5 359 355 326 267 231 213 205 194 191 193 191 190
118 109 103 71 74 123 97 54 122 204 269 46 69 59 98 93 84 86 71 46 42 69 101 110 110 108 108 108 109 110 108 98 81 64 56 52 48 50 55 45 29 19 6 356 355 356 1 8 9 10 13 18 21 20 18 19 18 19 24 28 27 24 23 25 27 24 20 17 15 17 19 18 18 18 17 19 26 42 73 127 161 170 173 174 175 177
112 121 107 63 54 122 114 86 114 163 218 175 203 269 196 112 102 109 89 58 49 66 102 116 118 118 118 118 121 127 129 111 79 57 51 52 45 44 49 43 33 28 18 15 14 15 19 23 23 24 26 28 29 27 25 24 22 21 26 29 27 24 25 26 25 23 21 19 17 19 22 25 26 28 30 35 42 50 60 74 98 127 146 149 149 146
74 111 129 115 77 101 105 101 121 167 215 200 192 249 354 133 179 154 108 85 91 116 128 127 124 125 127 131 139 154 161 104 64 45 42 46 36 30 35 32 31 36 31 25 24 25 26 28 29 30 32 34 33 32 31 30 28 26 28 28 26 24 25 25 23 21 22 21 21 23 26 30 33 35 37 43 49 55 64 76 86 100 119 126 122 114
52 55 92 100 94 102 111 121 157 191 240 202 172 229 322 341 173 110 84 105 151 145 143 136 133 136 140 145 151 165 187 106 96 82 49 51 35 22 27 28 27 33 36 36 34 30 26 29 33 34 34 34 32 33 35 35 33 31 28 28 28 27 25 21 19 21 24 26 29 31 31 33 37 40 42 47 55 62 70 78 87 96 104 109 107 103
39 22 48 87 101 99 98 102 145 191 279 39 149 248 316 334 79 87 94 214 164 146 149 144 140 142 143 146 146 116 24 106 133 134 91 78 60 40 41 41 32 32 38 40 40 39 36 35 34 32 30 29 30 34 37 36 35 33 29 28 30 29 23 18 19 26 31 34 37 39 37 37 39 42 45 50 59 70 77 80 84 93 98 99 101 102
30 22 60 104 103 84 88 97 80 280 257 147 162 284 296 358 74 122 190 197 142 135 140 138 138 138 137 139 130 79 53 82 108 115 99 88 77 57 55 58 53 49 47 46 45 44 42 38 36 34 31 30 32 35 36 35 36 34 29 29 29 28 24 23 27 34 37 38 40 41 42 43 43 44 47 53 62 73 82 83 81 87 94 95 95 96
67 41 43 79 102 99 100 106 107 279 261 137 143 282 259 155 181 196 165 114 107 114 114 113 124 129 120 108 106 109 104 97 101 105 96 87 82 67 61 61 59 55 52 51 50 47 44 41 38 37 35 34 35 35 35 35 35 33 31 29 26 26 28 31 35 39 40 41 41 41 43 47 49 50 51 55 63 70 79 85 85 86 91 93 93 91
116 96 63 72 119 105 75 79 114 213 227 128 135 229 299 186 176 145 105 89 96 106 104 100 109 117 114 108 109 115 113 105 103 101 91 83 76 68 64 62 58 54 50 48 47 46 46 44 41 38 37 37 37 37 35 35 34 32 31 28 27 31 35 36 38 41 43 44 44 43 44 46 51 56 57 59 63 66 71 78 83 84 86 89 89 87
38 103 154 187 174 123 124 149 204 233 209 178 183 154 110 104 121 120 111 95 90 98 104 104 107 115 120 122 122 120 114 109 104 98 90 82 74 70 66 60 55 52 50 47 45 44 43 42 40 40 41 40 39 38 37 35 34 32 29 28 31 35 38 38 39 41 42 44 45 46 46 46 49 56 60 63 65 67 66 69 73 78 82 84 83 81
30 106 128 119 96 106 128 170 215 206 106 100 95 103 103 98 98 108 111 106 102 106 114 116 118 122 124 124 123 117 112 108 103 98 96 92 86 78 66 55 52 53 54 51 46 42 41 41 39 38 38 38 40 41 40 38 36 33 30 30 34 36 38 39 41 41 41 43 44 47 49 49 50 53 58 63 67 68 67 67 68 70 76 80 81 80
121 102 86 97 121 108 66 57 96 107 96 87 79 81 90 92 94 103 105 103 104 108 110 116 121 122 120 120 117 111 111 115 110 105 107 103 93 80 65 58 57 59 57 50 42 38 39 41 37 32 31 32 35 37 38 38 38 36 32 33 36 37 38 40 41 41 41 41 41 45 50 53 53 54 57 62 66 68 68 68 69 70 74 78 80 79
273 79 80 102 140 134 66 63 96 101 101 99 92 86 84 82 80 88 98 102 104 103 104 108 111 111 109 111 114 114 117 120 113 106 106 101 93 83 74 67 62 59 53 42 38 39 38 37 33 29 28 29 29 29 29 31 35 39 39 38 37 37 38 39 41 42 41 40 39 40 45 50 53 55 58 60 63 66 66 64 65 67 69 71 73 74
230 111 100 96 103 103 104 113 102 87 84 85 88 94 95 90 87 86 92 100 101 100 103 105 106 110 110 107 113 117 116 115 116 115 110 102 100 93 80 71 64 59 53 45 42 42 39 36 35 31 29 29 28 27 28 30 35 41 41 39 36 36 37 38 39 42 43 42 40 39 41 45 50 54 57 58 59 60 58 54 55 58 59 60 64 71
123 96 110 111 104 98 104 117 111 91 78 73 81 91 99 101 102 99 97 101 103 102 100 97 98 107 115 116 118 117 113 113 116 115 107 98 95 88 74 66 62 56 51 46 41 39 38 36 33 30 27 26 26 28 29 32 36 38 38 38 37 37 37 35 35 38 42 43 42 40 41 44 48 52 56 59 60 60 58 55 54 54 54 52 54 64
82 104 130 129 128 138 144 141 132 112 102 103 104 103 105 109 110 107 105 106 107 107 105 98 93 97 107 117 121 115 108 109 112 109 102 89 83 79 69 63 61 56 52 48 42 38 38 32 25 20 18 19 23 26 27 28 30 32 32 33 36 38 37 34 32 34 37 40 42 41 41 44 47 51 54 59 63 65 64 62 59 57 56 53 51 53
152 157 158 135 122 140 142 137 129 110 110 121 121 113 113 116 114 112 114 113 109 109 111 108 104 99 97 108 121 123 120 118 116 112 100 84 79 84 75 63 59 57 56 55 51 47 43 36 30 24 16 11 12 14 15 18 22 25 25 22 22 26 28 27 29 33 35 36 39 41 40 42 48 52 54 57 61 66 69 69 67 64 62 60 59 58